User: anonymous   Login
Location: Cranbrook Institute of Science
(42.5830°N, 83.2450°W)
Time: 16:24:50
(UTC-05:00)
Language:

CZ-4B R/B - Orbit

View from above orbital plane
View from above orbital plane
View from above satellite
View from above satellite

Ground track
Ground track

The orbit data is extracted from the following two-line orbital elements,

1 29093U 06015B   14330.23684102  .00010198  00000-0  34512-3 0  4589
2 29093 097.5095 050.4657 0086935 051.7591 008.2243 15.27165992474287
Epoch (UTC): 26 November 2014 05:41:03
Eccentricity: 0.0086935
inclination: 97.5095°
perigee height: 424 km
apogee height: 544 km
right ascension of ascending node: 50.4657°
argument of perigee: 51.7591°
revolutions per day: 15.27165992
mean anomaly at epoch: 8.2243°
orbit number at epoch: 47428

The dashed part of the orbit path shows where the satellite is in the earth's shadow,  

DLR